Content
SEND FEEDBACK

Daily
Averages
Monthly
Summary
United States of America

WILLOW CITY, TEXAS


Home > North America > United States > Texas
Elevation: 1600 feet     Latitude: 30 21N     Longitude: 098 40W

WEATHER
 
SELECT A DAY
Number of Records: 297,257;   Date Range: 6/6/02 - 9/20/14
 
SHARE

PRINT THIS DATA

[ ← Previous Day ]
WEATHER ALMANAC - JANUARY 23, 2013
[ Next Day → ]
[ °C ]   °F
Weather ElementAverageHighLow
Temperature55.1 °F71.2 °F (3:55 pm)40.8 °F (3:15 am)
Dewpoint50.3 °F56.1 °F (2:15 pm)40.8 °F (3:15 am)
Humidity85.9 %100 % (12:55 am)54 % (4:15 pm)
Barometer30.26 in30.33 in (10:15 am)30.21 in (3:35 pm)
Wind Speed5.7 mph15 mph (11:55 am)
Wind Gust19.6 mph (11:35 am)
Weather ElementAverage
Visibility9.4 mi
Wind DirectionESE (128.3 °)

Weather ElementTotal
Precipitation---
Heating Degree Days9 (Base 65)
Growing Degree Days6 (Base 50)
Averaged from 70 records on January 23, 2013
WEATHER CONDITIONS BREAKOUT
WIND DIRECTION BREAKOUT
WEATHER BY HOUR - JANUARY 23, 2013
[ °C ]   °F
Local TimeTemperatureDewpointHumidityBarometerVisibilityWind DirectionWind SpeedGust SpeedPrecipitationEventsConditions
12:35 AM41.2 °F41.0 °F99 %30.26 in10.0 miCalmClear
12:55 AM41.5 °F41.5 °F100 %30.26 in10.0 miWSW (240°)3.5 mphClear
1:15 AM42.8 °F42.1 °F97 %30.26 in10.0 miCalmClear
1:35 AM44.2 °F43.0 °F95 %30.26 in10.0 miCalmClear
1:55 AM43.2 °F43.0 °F99 %30.26 in10.0 miCalmClear
2:15 AM42.3 °F42.1 °F99 %30.26 in10.0 miCalmClear
2:35 AM42.8 °F42.8 °F100 %30.26 in10.0 miCalmClear
2:55 AM41.9 °F41.9 °F100 %30.26 in10.0 miCalmClear
3:15 AM40.8 °F40.8 °F100 %30.26 in10.0 miCalmClear
3:35 AM41.5 °F41.5 °F100 %30.26 in1.2 miCalmMist
3:55 AM41.7 °F41.7 °F100 %30.25 in5.0 miCalmClear
4:15 AM43.7 °F43.7 °F100 %30.25 in7.0 miCalmClear
4:35 AM43.7 °F43.7 °F100 %30.24 in4.0 miCalmClear
4:55 AM43.7 °F43.7 °F100 %30.24 in7.0 miCalmMostly Cloudy
5:15 AM47.3 °F47.3 °F100 %30.25 in10.0 miCalmOvercast
5:35 AM49.5 °F49.5 °F100 %30.24 in10.0 miSSW (200°)9.2 mphOvercast
6:15 AM50.7 °F50.7 °F100 %30.26 in7.0 miCalmOvercast
6:35 AM51.1 °F51.1 °F100 %30.27 in7.0 miCalmOvercast
6:55 AM51.8 °F51.8 °F100 %30.28 in7.0 miCalmOvercast
7:15 AM52.3 °F52.3 °F100 %30.28 in7.0 miSSW (200°)5.8 mphOvercast
7:35 AM52.7 °F52.7 °F100 %30.28 in7.0 miSSW (210°)6.9 mphOvercast
7:55 AM52.9 °F52.9 °F100 %30.28 in7.0 miSSW (210°)6.9 mphOvercast
8:15 AM52.9 °F52.9 °F100 %30.29 in10.0 miSW (220°)4.6 mphMostly Cloudy
8:35 AM53.6 °F53.4 °F99 %30.29 in10.0 miSW (220°)6.9 mphOvercast
8:55 AM54.5 °F54.1 °F99 %30.30 in10.0 miSSW (210°)6.9 mphOvercast
9:15 AM54.7 °F53.8 °F97 %30.31 in10.0 miSW (230°)6.9 mphMostly Cloudy
9:35 AM55.9 °F53.6 °F92 %30.31 in10.0 miSSW (210°)9.2 mphMostly Cloudy
9:55 AM57.2 °F53.8 °F88 %30.32 in10.0 miSSW (200°)9.2 mphMostly Cloudy
10:15 AM57.9 °F53.8 °F86 %30.33 in10.0 miSW (220°)12.7 mphScattered Clouds
10:35 AM59.4 °F54.3 °F83 %30.33 in10.0 miSSW (210°)13.8 mphScattered Clouds
10:55 AM59.0 °F54.1 °F84 %30.33 in10.0 miSSW (210°)12.7 mphScattered Clouds
11:15 AM60.6 °F55.0 °F82 %30.33 in10.0 miSSW (200°)12.7 mphScattered Clouds
11:35 AM61.2 °F54.5 °F79 %30.32 in10.0 miSSW (200°)13.8 mph19.6 mphMostly Cloudy
11:55 AM61.2 °F54.5 °F79 %30.31 in10.0 miSW (220°)15.0 mph19.6 mphScattered Clouds
12:15 PM62.1 °F54.9 °F77 %30.30 in10.0 miSSW (200°)12.7 mphScattered Clouds
12:35 PM62.4 °F55.0 °F77 %30.29 in10.0 miSouth (190°)13.8 mph18.4 mphClear
12:55 PM63.7 °F55.4 °F74 %30.28 in10.0 miSSW (200°)11.5 mphClear
1:15 PM64.6 °F55.6 °F73 %30.26 in10.0 miSSW (200°)11.5 mphClear
1:35 PM66.2 °F55.8 °F69 %30.25 in10.0 miSSW (210°)9.2 mph16.1 mphClear
1:55 PM66.6 °F55.8 °F68 %30.25 in10.0 miSSW (200°)11.5 mph17.3 mphClear
2:15 PM67.6 °F56.1 °F67 %30.24 in10.0 miSSW (210°)12.7 mph16.1 mphClear
2:35 PM69.1 °F55.6 °F62 %30.23 in10.0 miSW (230°)12.7 mphClear
2:55 PM70.0 °F55.2 °F59 %30.22 in10.0 miSSW (210°)12.7 mph18.4 mphClear
3:15 PM70.5 °F54.7 °F57 %30.22 in10.0 miSSW (200°)12.7 mph16.1 mphClear
3:35 PM71.1 °F54.5 °F56 %30.21 in10.0 miSSW (210°)12.7 mphClear
3:55 PM71.2 °F54.1 °F55 %30.21 in10.0 miSSW (210°)12.7 mphClear
4:15 PM71.2 °F53.8 °F54 %30.21 in10.0 miSSW (200°)12.7 mph19.6 mphClear
4:35 PM70.9 °F53.6 °F54 %30.22 in10.0 miSSW (200°)12.7 mphClear
4:55 PM70.3 °F53.6 °F55 %30.21 in10.0 miSSW (200°)12.7 mphClear
5:15 PM69.8 °F53.6 °F56 %30.22 in10.0 miSSW (210°)11.5 mph18.4 mphClear
5:35 PM68.4 °F53.6 °F59 %30.22 in10.0 miSSW (210°)8.1 mphClear
5:55 PM67.5 °F53.8 °F61 %30.22 in10.0 miSSW (200°)10.4 mphClear
6:15 PM64.9 °F53.4 °F66 %30.22 in10.0 miSouth (190°)5.8 mphClear
6:35 PM63.7 °F53.8 °F70 %30.22 in10.0 miSouth (190°)5.8 mphClear
6:55 PM62.2 °F53.6 °F73 %30.22 in10.0 miSouth (180°)3.5 mphClear
7:15 PM61.0 °F53.1 °F75 %30.22 in10.0 miSouth (180°)3.5 mphClear
7:35 PM55.2 °F50.2 °F83 %30.22 in10.0 miCalmClear
7:55 PM50.9 °F47.8 °F89 %30.22 in10.0 miCalmClear
8:15 PM51.1 °F49.3 °F94 %30.23 in10.0 miCalmClear
8:35 PM51.3 °F50.0 °F95 %30.24 in10.0 miNW (320°)3.5 mphClear
8:55 PM51.4 °F49.6 °F94 %30.24 in10.0 miCalmClear
9:15 PM50.0 °F49.1 °F97 %30.24 in10.0 miCalmClear
9:35 PM50.4 °F49.1 °F95 %30.24 in10.0 miCalmClear
9:55 PM48.0 °F47.8 °F99 %30.24 in10.0 miCalmClear
10:15 PM48.6 °F48.0 °F98 %30.24 in10.0 miCalmClear
10:35 PM47.1 °F46.9 °F99 %30.24 in10.0 miCalmClear
10:55 PM46.6 °F46.6 °F100 %30.24 in10.0 miCalmClear
11:15 PM47.3 °F47.3 °F100 %30.24 in10.0 miNW (310°)4.6 mphClear
11:35 PM47.8 °F47.7 °F99 %30.25 in10.0 miNW (310°)3.5 mphClear
11:55 PM48.0 °F47.8 °F99 %30.24 in10.0 miCalmClear
Hourly data recorded from KT82, located miles away from Willow City, Texas







STORIES FROM OUR PARTNERS